Wind_Speed
39 40 41 42 43 43 43 43 43 43 42 42 42 42 42 42 42 42 42 42 42 41 41 41 40 40 39 39 38 37 38 39 40 41 41 41 40 43 50 55 54 52 51 49 48 47 46 46 45 43 42 41 39 37 35 33 30 27 25 25 20 18 20 16 13 12 7 7 8 7 7 6 6 8 9 11 13 14 14 15 18 20 24 29 32 28 21 20
37 38 39 40 41 42 43 44 45 44 44 43 43 43 43 44 44 44 43 43 43 43 43 42 42 42 41 41 40 39 39 40 41 42 42 42 41 41 46 54 56 54 53 51 50 49 48 48 47 46 44 43 42 40 38 35 32 30 29 27 23 21 21 17 15 14 9 8 7 7 8 6 5 7 9 11 12 13 13 14 16 18 22 25 29 29 22 19
37 38 38 39 39 41 42 43 44 45 46 45 45 45 45 45 45 45 45 45 45 45 44 44 44 43 43 43 42 42 40 41 41 42 43 43 43 42 43 50 56 56 54 53 52 51 50 49 48 47 46 45 43 42 40 38 35 32 31 29 25 23 22 18 17 15 10 9 9 9 10 9 8 8 8 11 12 11 12 12 15 16 19 22 25 29 23 17
39 39 39 39 39 39 40 41 43 44 46 46 46 46 47 47 47 47 47 47 47 46 46 46 45 45 45 45 44 44 43 42 42 43 44 44 44 44 43 46 53 57 56 55 54 53 51 50 49 48 48 47 45 43 41 40 38 35 33 31 28 26 24 20 18 16 12 11 11 11 11 11 10 9 11 12 11 10 10 9 13 15 17 20 22 26 25 18
44 43 41 41 40 40 40 40 41 43 44 45 46 47 48 49 49 49 48 48 48 48 48 48 47 47 46 46 46 46 45 43 44 45 45 45 46 46 45 45 49 55 58 57 56 54 52 51 50 50 50 49 47 45 44 42 41 38 35 33 30 28 26 22 20 18 14 12 11 12 11 11 11 10 11 10 9 7 6 8 11 13 14 18 20 23 25 19
47 47 46 45 44 43 42 41 41 42 43 44 45 46 47 49 50 50 50 50 50 50 50 49 49 49 48 48 48 47 47 46 46 46 46 46 47 47 47 46 46 51 58 59 57 56 54 53 51 50 51 51 49 48 46 45 43 40 38 35 31 29 27 24 22 21 18 13 11 12 12 12 11 8 9 10 7 4 5 9 10 11 12 15 18 21 23 21
47 48 49 49 48 47 46 45 44 43 42 43 44 45 47 48 50 51 52 52 52 52 51 51 51 51 50 50 50 49 48 48 47 47 47 47 48 48 49 48 47 48 54 59 59 57 56 54 53 52 52 52 51 50 48 47 45 43 39 36 34 31 30 28 25 23 22 17 12 12 13 12 11 10 12 10 7 6 7 8 8 9 10 12 15 19 21 21
45 47 49 50 51 50 50 49 48 46 45 44 43 44 46 48 49 51 52 53 53 54 53 53 53 53 52 52 52 51 50 50 50 49 49 48 49 49 50 50 49 47 50 56 60 60 58 56 55 53 52 52 52 52 51 49 47 46 41 37 36 34 32 32 29 26 26 23 17 13 13 15 13 14 14 10 8 9 8 6 7 7 8 10 13 16 18 19
43 45 47 49 51 52 52 52 52 51 50 48 46 45 45 47 48 50 52 53 54 55 55 55 54 54 54 54 54 52 52 52 52 51 51 50 50 50 51 51 50 49 48 52 58 61 60 58 56 55 54 53 53 53 53 51 49 48 44 39 38 36 34 34 31 29 28 25 21 15 15 17 17 17 15 12 13 11 7 5 5 6 6 8 10 13 15 16
44 44 46 48 50 52 53 54 54 54 53 52 51 49 48 47 48 49 51 53 54 56 57 57 56 56 56 56 55 54 54 54 54 54 53 52 52 51 52 52 52 51 50 50 54 59 61 60 58 57 56 55 54 54 54 53 51 50 47 42 40 38 35 34 33 32 29 26 24 20 18 19 19 19 17 14 14 10 6 4 4 4 5 6 8 10 12 14
45 46 47 47 49 51 52 54 55 55 55 55 55 54 52 51 49 49 51 53 54 55 57 58 59 58 57 57 56 56 56 56 56 56 55 54 54 53 52 53 53 52 52 50 51 55 60 62 62 60 58 56 55 54 54 54 52 50 49 45 42 40 38 35 34 34 32 29 28 26 23 20 19 19 16 15 15 10 7 5 4 3 4 5 7 8 10 11
43 47 49 50 50 51 52 53 54 55 56 57 57 57 56 55 53 52 51 52 54 56 57 59 60 60 60 59 57 58 58 58 58 58 58 57 55 55 54 53 54 54 53 52 51 52 58 62 64 63 61 59 56 55 54 54 53 51 49 47 44 42 40 38 36 35 34 33 32 29 26 23 20 19 17 17 17 13 9 7 5 3 3 4 5 5 7 9
38 44 49 51 52 53 53 53 54 55 56 57 58 59 59 58 58 56 54 53 53 56 58 59 60 61 61 60 60 60 59 59 60 60 60 59 58 57 56 55 55 55 55 54 53 52 56 60 63 65 64 61 58 57 55 54 54 52 49 48 46 43 41 40 38 37 35 35 34 31 29 26 23 22 19 17 18 16 12 9 6 4 3 2 3 2 4 7
35 39 45 50 53 55 55 55 55 55 56 57 58 59 60 60 60 60 59 57 55 55 58 60 61 61 62 62 63 62 61 61 62 62 62 61 60 59 58 57 56 56 56 56 56 54 55 58 61 65 65 63 62 59 56 55 54 52 51 49 47 45 43 41 40 39 37 34 34 33 31 28 26 25 20 18 19 17 13 11 9 7 5 4 2 2 1 3
34 35 40 46 51 54 56 57 57 57 56 57 58 59 60 62 62 62 61 60 59 58 58 59 61 62 63 64 64 64 63 63 63 63 64 63 63 62 60 59 57 57 58 58 58 56 56 56 59 63 66 66 64 60 57 56 55 53 52 50 48 46 44 42 40 40 39 34 32 33 32 30 28 26 21 21 22 19 15 13 11 11 9 7 5 4 4 1
35 35 36 41 47 52 55 57 59 59 59 58 59 60 61 62 63 63 63 63 63 61 60 60 61 63 64 64 65 66 66 65 65 65 65 66 65 64 63 61 60 59 59 59 60 59 57 57 58 60 65 67 64 61 60 58 57 55 53 51 50 48 45 42 40 40 40 34 31 34 34 32 30 28 25 25 25 22 19 16 15 15 13 11 9 8 7 5
37 35 35 37 42 47 51 54 58 60 61 61 61 61 62 63 64 64 65 65 65 64 64 62 61 63 64 66 67 68 67 67 67 67 67 67 67 66 65 64 63 61 60 61 61 61 59 58 58 59 63 66 66 64 63 61 59 56 55 53 52 50 47 44 40 40 41 37 34 35 35 36 33 28 27 27 25 23 21 19 17 16 14 13 11 10 10 8
39 36 35 36 39 42 46 49 53 57 59 61 63 64 64 65 65 66 66 67 67 67 66 65 64 63 64 66 67 67 68 69 69 69 69 69 69 69 68 66 65 64 62 62 62 62 61 60 59 60 62 64 65 66 65 64 61 59 57 55 53 51 49 47 42 40 40 39 38 38 36 37 36 32 29 27 24 23 22 21 19 16 14 14 13 12 12 11
41 37 35 35 37 40 43 45 48 51 54 57 60 64 65 67 67 68 68 68 69 69 67 67 67 66 64 65 67 68 70 71 71 71 71 71 71 71 70 69 68 66 64 63 63 63 63 62 61 60 60 62 65 67 67 65 63 61 59 57 55 53 51 50 47 44 43 43 42 41 39 38 36 35 33 30 27 26 24 23 21 17 15 14 15 15 15 15
43 39 36 34 35 38 40 43 44 46 48 50 55 59 63 66 68 69 70 71 71 70 70 70 70 68 66 65 67 71 72 72 72 73 73 73 73 73 72 72 70 69 67 65 64 64 64 64 62 61 61 62 65 67 67 66 64 62 60 59 57 55 54 52 51 48 44 43 44 45 44 40 37 35 33 30 29 29 27 26 25 22 19 17 16 17 18 17
45 40 36 34 34 35 38 41 43 43 44 46 50 53 57 61 64 67 70 71 72 72 73 73 71 70 68 67 68 71 73 73 73 74 75 75 75 75 74 74 73 71 69 67 66 65 65 65 65 64 64 63 64 64 66 67 66 64 63 61 59 57 55 54 53 51 46 43 44 45 45 44 42 39 35 32 31 31 30 29 27 25 23 19 17 19 19 18
46 41 37 34 33 34 35 38 41 43 44 45 47 49 52 55 58 62 66 68 70 72 73 74 73 72 71 72 71 71 72 75 75 75 76 77 77 77 76 76 75 74 72 70 68 66 65 66 67 67 65 63 61 60 63 66 67 67 65 63 62 59 57 56 56 54 52 50 47 45 45 44 42 40 38 38 36 33 31 30 29 28 26 22 19 21 20 18
48 42 37 33 32 33 34 36 38 41 43 46 47 49 50 52 55 58 61 64 67 70 72 73 74 73 74 74 73 72 72 74 76 76 77 79 79 78 78 77 77 76 74 73 71 69 67 67 69 68 66 63 61 61 63 66 67 67 67 67 66 63 61 60 58 55 54 53 50 47 47 46 43 40 39 39 37 33 30 29 29 27 25 24 22 23 22 18
49 44 38 34 31 31 33 34 36 38 41 44 47 49 52 53 55 57 59 61 64 67 69 71 72 74 75 74 74 75 74 73 76 77 78 80 80 79 79 80 79 78 77 76 75 73 71 70 70 68 67 66 65 65 65 66 66 67 68 69 69 67 65 62 59 58 56 54 50 46 46 46 45 42 39 38 36 33 29 27 29 28 25 25 25 25 25 22
50 45 40 35 32 31 31 32 34 36 38 41 45 48 51 54 57 60 62 63 65 66 67 69 71 72 73 74 76 78 76 73 74 77 79 80 80 81 82 82 81 80 79 79 78 77 74 73 70 69 69 70 69 66 65 65 66 68 69 71 71 68 65 62 62 62 61 59 55 50 46 44 44 43 40 38 36 33 31 28 32 34 31 31 30 28 28 27
50 46 41 37 34 32 31 32 33 35 38 41 44 47 50 54 58 61 64 67 68 68 68 69 70 72 73 75 75 75 75 74 74 77 80 80 80 82 83 83 82 81 81 82 81 79 77 74 70 69 70 71 69 68 66 65 65 66 68 71 71 67 64 65 66 64 63 63 60 57 52 46 44 44 42 40 38 35 33 31 33 34 34 35 34 32 32 30
50 46 41 38 35 33 33 33 35 37 39 42 45 47 50 53 58 61 64 69 71 71 71 71 71 72 73 72 72 73 76 76 75 76 80 81 81 82 83 84 84 83 83 83 83 81 79 75 72 72 71 71 71 70 69 67 65 67 70 71 68 66 67 68 68 66 66 64 60 58 56 50 46 45 44 43 41 40 37 36 36 34 34 35 34 34 35 35
50 46 42 38 36 34 34 34 37 39 42 45 47 49 51 53 57 59 63 69 70 70 71 73 74 74 72 71 73 76 76 74 74 75 77 81 82 83 85 86 86 86 85 85 85 84 81 77 76 75 73 72 73 72 71 69 68 70 70 68 67 66 68 69 68 68 66 64 62 59 56 53 49 46 46 45 44 42 39 39 40 38 35 34 33 32 33 35
49 46 42 38 36 35 35 36 39 41 44 47 48 49 50 52 54 57 62 66 66 68 71 74 77 76 75 75 76 76 72 71 73 72 74 78 82 84 85 85 86 86 86 88 88 87 84 81 80 78 76 74 73 74 73 71 72 71 67 66 67 67 67 68 69 69 67 65 64 61 57 56 54 51 50 49 46 44 40 39 40 39 37 35 34 33 32 33
49 46 42 39 37 35 36 38 41 43 45 46 46 46 46 48 50 53 59 62 63 67 71 75 77 77 77 78 77 75 73 73 72 71 72 76 79 83 83 84 85 85 87 91 90 88 86 84 83 81 79 76 75 74 72 73 74 69 65 66 68 67 67 68 69 69 68 67 65 63 62 61 59 57 55 52 48 47 44 43 41 38 36 37 37 38 39 35
48 45 42 39 37 36 37 39 42 44 45 44 42 40 40 42 45 49 54 56 59 65 70 73 75 76 77 78 77 76 74 74 73 73 75 75 77 80 81 82 84 85 88 92 91 87 85 85 85 84 80 77 75 71 69 74 75 68 66 69 69 69 70 69 68 68 68 68 66 66 66 65 63 61 58 55 52 49 47 47 46 40 35 35 37 41 43 37
47 45 42 40 38 37 39 41 44 45 44 39 35 33 33 35 38 43 46 50 55 61 66 70 73 75 78 79 79 78 77 76 76 77 77 76 78 80 81 84 85 86 91 93 91 88 88 90 88 84 81 79 76 73 73 77 74 71 73 74 71 71 70 68 67 66 67 69 69 70 70 69 66 64 62 59 57 55 51 50 50 48 44 38 37 41 42 39
46 44 42 40 38 38 40 43 45 45 41 35 30 27 27 29 33 37 39 44 50 55 60 66 71 74 76 77 79 79 78 78 78 78 78 77 78 78 80 84 84 86 90 92 91 91 93 92 88 85 84 82 80 80 79 77 75 76 78 76 72 71 69 68 67 65 67 69 71 73 72 69 67 66 65 62 61 59 57 55 53 53 53 48 44 44 44 42
45 43 42 40 39 40 42 44 46 45 39 31 26 23 22 25 29 32 35 39 45 50 57 63 67 71 73 76 79 80 80 80 79 79 77 77 77 77 79 82 84 86 88 90 90 92 94 93 90 90 88 86 85 84 80 77 75 77 79 78 74 71 70 69 68 66 68 69 71 72 70 68 68 67 68 67 65 63 62 60 58 57 59 56 49 45 44 44
43 43 41 39 39 41 43 45 47 46 38 29 23 20 19 21 24 27 31 35 39 45 51 57 63 68 72 76 79 81 81 82 81 81 80 80 81 82 82 83 86 88 89 90 91 93 96 95 93 92 89 88 88 85 80 77 76 77 79 79 77 74 73 72 70 69 70 71 72 70 67 68 69 69 70 71 69 67 65 64 62 62 63 62 54 46 44 44
42 42 40 39 40 42 45 47 49 46 37 27 21 18 17 18 20 23 27 31 36 41 45 50 57 63 69 74 77 79 80 81 82 83 82 82 82 80 80 80 83 86 88 89 91 95 97 95 93 92 91 91 90 87 83 82 82 80 79 80 80 78 76 74 73 73 73 73 73 72 69 69 71 70 71 71 71 70 69 67 65 65 66 66 60 54 51 49
41 40 39 39 40 43 46 49 50 45 35 26 20 16 15 15 17 20 24 29 34 38 42 47 53 59 65 70 74 77 78 80 82 83 83 82 80 79 79 81 82 85 88 89 91 95 96 93 93 94 93 93 92 89 87 87 86 83 81 83 82 79 76 74 73 73 74 73 73 72 71 71 73 73 72 72 72 73 71 70 69 68 68 68 64 61 59 58
40 39 38 38 41 44 46 49 51 45 34 25 20 16 13 13 15 18 22 27 32 37 42 47 52 56 60 65 70 73 76 78 80 82 83 83 82 81 82 82 83 86 89 90 91 93 93 91 93 94 94 94 94 91 90 91 88 84 83 82 79 79 80 78 76 75 74 73 72 72 72 74 75 76 75 73 72 74 74 73 73 72 72 72 68 65 64 63
39 38 36 38 41 44 47 49 50 45 35 26 20 16 12 11 13 16 21 27 32 36 41 45 49 53 57 61 66 70 74 77 80 81 82 82 83 83 83 83 84 86 89 90 90 91 91 91 93 95 95 96 96 95 95 94 91 88 85 82 79 81 83 83 82 80 78 76 75 74 74 77 76 75 75 73 72 74 75 75 75 75 74 74 71 69 67 66
37 36 35 37 40 43 47 49 50 44 34 27 20 15 11 10 12 15 21 26 31 35 40 43 47 50 54 58 62 66 71 75 79 81 82 82 83 83 83 84 85 86 88 89 90 90 91 91 93 95 96 98 99 99 99 97 94 90 88 86 83 83 85 85 83 82 81 80 79 78 79 78 75 74 73 73 74 76 76 77 77 76 76 75 73 71 70 68
35 34 34 37 40 44 47 49 49 42 32 25 19 14 10 9 10 14 20 26 31 34 37 42 46 49 53 56 60 64 68 72 75 78 80 81 82 83 83 84 85 86 88 90 91 91 91 91 93 95 98 101 101 100 98 96 93 91 90 88 87 87 87 86 85 84 82 82 83 83 83 79 76 74 74 75 76 76 76 77 77 77 76 76 74 73 72 70
34 32 34 37 40 44 47 49 49 41 31 24 19 14 10 7 10 13 19 25 30 34 35 39 43 46 49 52 56 60 64 68 71 74 77 78 80 81 83 84 85 86 87 89 91 91 91 91 94 98 101 101 98 97 98 96 95 94 93 91 89 88 86 86 89 89 87 86 85 84 82 78 76 76 76 77 78 76 76 76 76 76 76 76 75 75 73 71
32 31 34 37 40 44 47 49 49 42 32 25 19 14 10 7 9 13 18 23 29 33 36 37 39 43 46 49 52 56 61 64 67 71 74 76 78 80 81 83 84 85 86 88 90 90 91 92 94 96 98 97 96 98 99 98 98 98 96 94 92 89 88 87 89 89 88 88 87 85 83 79 78 78 79 79 79 77 76 76 75 76 76 76 76 75 74 73
29 29 33 36 40 44 47 49 49 41 32 26 20 14 10 6 8 12 17 22 27 32 36 38 39 40 43 46 49 52 57 61 65 68 71 74 76 78 80 82 83 84 85 86 88 90 91 92 92 93 95 97 98 100 99 99 100 100 97 94 92 92 91 89 88 88 89 90 89 89 87 83 82 83 81 79 78 77 77 76 76 76 75 75 75 75 75 74
28 29 33 36 39 44 47 49 49 41 32 26 21 15 10 7 7 11 16 21 26 30 33 37 40 41 42 44 47 50 53 56 60 64 67 71 74 76 78 80 82 84 85 86 88 90 90 90 90 92 96 100 101 101 101 101 102 101 97 94 94 93 92 91 90 90 92 93 93 92 89 84 84 84 82 81 79 77 77 77 77 77 76 75 75 75 74 74
27 29 32 35 39 43 46 49 49 42 33 27 22 16 11 7 6 10 15 20 25 29 32 35 39 42 44 45 47 48 50 53 56 59 63 66 70 73 76 78 80 82 84 86 88 89 89 89 90 92 96 100 101 102 102 102 102 100 97 96 96 94 93 93 92 92 93 94 94 94 90 86 85 85 83 82 80 79 78 78 78 78 77 77 76 75 75 74
26 28 32 35 39 43 46 49 49 42 33 27 22 16 11 7 6 9 13 18 23 27 31 33 36 39 43 46 48 49 51 53 55 57 60 63 66 70 73 76 78 80 82 84 86 87 88 89 91 93 95 98 99 100 100 100 100 99 98 98 97 96 96 96 95 94 93 92 94 95 92 89 89 89 87 84 83 81 81 80 80 79 78 78 77 76 76 75
26 28 31 34 38 42 46 49 48 42 33 28 22 16 11 8 6 8 12 17 21 25 29 33 35 37 40 43 46 49 51 52 54 56 58 61 64 67 70 73 76 78 80 82 84 86 87 89 90 92 94 97 98 100 100 100 99 99 100 101 99 98 98 97 96 95 93 92 94 95 93 92 92 91 89 87 86 84 83 82 82 81 80 79 78 77 76 76
26 28 30 33 37 42 45 47 47 41 34 28 22 16 11 8 6 8 12 16 20 23 27 31 34 37 39 41 44 46 48 50 52 54 57 60 63 66 68 71 73 76 78 81 82 85 86 87 89 92 94 96 98 100 101 101 100 101 102 102 102 101 100 99 98 96 95 95 96 95 94 94 93 92 92 91 89 88 87 85 83 82 81 80 79 78 77 77
26 27 30 32 37 41 44 46 45 39 34 29 23 17 12 7 6 7 11 15 18 22 25 29 32 36 38 40 43 45 47 49 51 53 55 58 60 63 66 69 72 74 77 79 81 84 85 86 89 92 94 96 98 100 102 102 102 102 102 103 103 103 102 101 100 98 98 98 98 96 95 94 93 94 95 94 92 90 89 87 86 84 83 82 81 79 79 78
25 26 29 32 36 40 43 45 43 37 33 29 24 19 13 7 4 5 9 14 18 21 24 27 30 33 37 40 42 44 47 49 50 52 54 56 58 60 63 66 69 72 75 77 80 82 84 85 88 91 94 96 97 99 101 103 104 104 103 104 105 105 104 104 102 100 99 99 98 97 97 96 94 95 97 96 94 92 91 90 89 88 86 85 83 82 81 80
25 26 29 31 35 39 42 44 41 35 31 29 25 21 15 9 4 3 7 12 16 19 22 26 28 31 34 37 40 43 46 48 50 52 53 55 57 59 61 63 66 69 72 75 78 81 82 84 88 91 93 95 96 98 100 102 104 105 105 105 105 106 106 105 103 102 101 100 100 100 101 99 96 96 98 97 95 94 94 93 92 91 89 88 86 85 83 82
Wind_Direction
268 266 264 262 259 256 253 251 248 246 244 243 242 242 242 242 240 239 239 238 236 234 232 230 229 228 226 223 222 223 225 225 223 222 221 221 220 218 215 214 212 209 208 208 208 206 204 202 200 197 198 199 197 195 193 191 191 189 182 185 191 195 206 207 195 199 189 173 188 201 219 223 228 245 260 288 314 326 330 338 345 0 17 23 26 32 43 45
270 268 266 264 262 259 256 253 250 247 244 242 240 239 239 239 239 238 237 237 235 234 231 230 229 227 226 224 222 221 223 225 224 223 222 221 220 220 218 215 213 211 208 208 208 208 205 204 202 198 199 199 198 197 194 192 192 189 187 189 193 198 205 205 198 198 188 168 181 212 223 226 248 254 259 288 315 324 325 334 343 358 15 23 28 31 38 46
270 269 267 265 264 261 259 256 253 250 247 243 241 239 238 237 237 237 236 236 235 233 231 229 228 227 226 225 223 221 221 223 225 223 222 221 221 221 220 216 214 213 211 209 209 209 207 206 204 201 200 200 199 198 196 194 192 190 189 192 197 202 204 208 205 200 196 178 176 207 225 240 261 260 272 299 310 317 322 332 342 355 12 20 30 33 32 41
270 268 266 265 264 262 260 258 256 253 251 246 242 240 238 236 235 234 234 234 234 233 231 229 227 226 225 224 224 222 220 221 224 224 222 221 221 221 221 219 216 215 213 210 209 209 209 208 206 204 202 202 201 200 198 196 193 193 195 196 198 200 202 208 206 201 197 183 179 200 223 234 243 260 283 298 304 309 317 328 343 353 10 18 29 36 31 32
270 268 266 264 263 262 260 259 257 255 253 250 246 242 239 237 235 233 232 232 232 232 231 230 227 225 224 223 223 222 220 220 222 224 222 220 221 221 221 220 218 216 214 213 211 209 209 209 208 206 204 203 202 202 201 199 197 198 200 200 200 201 204 205 204 207 198 178 182 204 219 228 240 266 276 286 303 310 325 337 344 351 10 19 26 37 33 27
270 269 267 264 262 261 259 258 257 256 254 253 250 245 241 238 236 234 232 231 230 230 230 229 228 225 223 222 222 222 221 219 220 222 222 221 220 221 221 220 220 218 215 214 213 211 210 210 209 208 206 205 204 203 203 201 200 200 201 201 202 204 206 204 203 209 205 188 184 198 215 230 238 259 267 276 290 289 332 341 340 349 9 20 25 36 34 27
270 268 267 265 263 261 259 257 255 254 254 253 251 248 245 241 238 236 233 231 230 229 228 228 228 226 224 222 221 220 220 220 219 221 222 221 220 220 221 220 220 219 216 215 215 213 211 210 210 209 208 207 206 205 205 203 201 201 203 203 203 205 206 206 204 207 209 206 197 190 207 228 230 245 260 257 247 262 306 329 334 345 7 22 23 34 37 30
272 268 266 265 263 262 260 258 255 253 252 251 251 250 247 244 240 237 234 232 231 229 227 227 227 226 224 222 220 219 219 219 219 220 221 221 221 220 220 220 220 220 218 216 216 214 213 211 211 210 210 209 208 207 206 205 203 202 204 205 206 207 206 206 205 206 210 214 213 204 218 235 235 238 242 239 245 265 283 305 322 338 5 22 22 31 38 35
275 270 267 264 262 261 260 258 256 254 252 250 249 248 247 245 242 239 236 233 232 230 228 226 225 225 224 223 220 218 218 218 218 219 220 220 221 220 220 220 220 220 219 217 216 216 215 213 212 211 211 210 209 208 207 207 205 204 205 204 206 208 207 205 204 206 211 216 217 214 224 227 227 231 233 243 252 250 253 279 307 329 358 19 21 29 39 38
274 271 268 265 262 260 259 258 257 255 253 251 248 246 245 245 243 241 238 235 232 231 229 227 225 224 224 223 221 219 217 217 217 218 219 220 220 220 219 220 220 219 219 218 217 216 216 215 214 213 212 211 210 210 209 208 206 206 207 206 207 208 206 206 204 204 208 212 210 207 215 217 222 235 237 238 234 224 229 257 284 315 350 18 18 28 41 40
272 269 268 265 262 260 258 256 256 255 253 252 249 247 244 243 242 240 239 236 234 231 230 228 226 224 223 223 221 220 218 216 216 216 217 218 219 219 219 219 220 219 219 219 218 217 217 217 216 215 213 211 211 211 210 210 209 208 209 210 211 210 208 207 206 206 207 208 208 209 217 219 222 230 231 224 223 227 229 234 261 302 345 13 19 29 45 43
275 268 266 264 263 260 258 256 254 254 253 252 250 248 245 243 241 239 238 236 235 232 230 229 227 225 223 222 221 221 219 217 216 216 216 217 218 219 218 218 219 219 219 218 218 217 217 218 217 216 214 212 211 211 211 211 210 210 211 212 212 212 211 210 209 210 210 210 211 213 219 222 222 224 223 223 230 238 231 221 240 272 331 9 26 26 47 50
284 271 266 263 262 260 258 256 254 253 252 251 250 248 246 244 242 240 238 236 234 233 231 229 227 226 224 222 222 221 219 218 217 215 215 216 217 218 218 218 218 219 219 218 217 216 217 218 218 218 216 213 211 211 211 212 211 211 211 212 212 212 212 211 211 211 212 213 214 216 219 221 225 228 227 228 232 235 230 217 224 254 291 339 21 6 40 54
296 280 269 263 261 259 258 256 254 253 251 250 249 248 247 245 243 241 239 237 234 233 231 230 228 226 224 222 222 220 220 219 217 216 215 215 216 217 217 217 217 218 218 219 218 216 217 218 218 218 216 215 213 211 210 212 213 212 211 211 211 212 211 211 211 210 212 214 215 218 220 221 227 230 227 226 227 231 234 224 223 245 260 275 293 276 326 49
304 291 277 267 262 258 256 255 253 252 251 250 249 248 247 246 244 243 241 239 237 234 231 230 228 226 224 223 222 221 220 219 218 216 215 215 215 215 216 216 217 217 217 218 218 217 217 217 219 219 217 217 214 211 211 212 212 212 212 211 211 211 210 210 211 211 213 215 216 217 218 219 223 224 221 223 228 233 239 234 233 245 251 256 254 243 257 281
311 300 287 274 266 260 256 254 252 251 249 249 248 247 246 245 244 243 242 240 239 236 234 231 229 226 224 223 222 221 220 219 219 217 216 215 214 214 215 216 216 216 217 217 218 217 216 217 218 219 219 218 216 213 212 212 212 212 212 211 211 210 209 209 210 212 214 215 219 220 219 219 218 218 221 227 232 234 237 240 241 246 247 248 245 234 238 247
318 306 294 282 272 264 259 255 252 251 249 248 247 246 246 245 244 243 242 241 239 238 236 234 230 227 224 222 221 220 220 219 219 218 216 216 214 214 214 215 215 216 216 217 217 217 216 216 217 217 219 218 216 214 213 212 212 212 212 212 211 211 209 207 207 212 214 213 218 224 223 220 219 219 221 226 230 230 234 240 239 240 242 240 236 226 229 243
323 312 300 288 278 270 263 257 254 252 250 248 247 246 245 244 244 243 242 241 240 239 237 236 234 230 225 223 222 220 220 219 219 218 217 216 215 214 213 214 215 215 216 216 217 217 216 216 216 217 218 218 217 216 215 213 212 212 212 212 211 211 210 206 205 208 210 211 217 224 225 222 221 219 216 221 228 229 234 238 233 233 236 233 229 224 229 238
326 317 305 292 282 274 266 260 256 253 251 250 248 247 246 245 244 243 243 242 241 240 238 237 236 233 228 225 222 220 220 219 218 218 217 217 216 215 213 213 214 214 215 216 216 216 216 216 216 217 217 217 217 217 215 214 213 213 212 212 211 210 210 208 206 205 206 210 213 217 221 221 219 217 217 224 231 230 233 235 233 233 234 230 228 228 230 229
328 320 309 296 284 276 269 263 258 254 252 250 249 248 246 245 244 243 243 242 242 241 239 238 236 234 232 228 224 221 219 218 217 217 217 217 216 215 214 213 213 213 214 215 216 216 216 216 216 217 216 216 216 216 215 214 214 214 213 213 212 211 210 209 208 206 207 213 215 215 218 218 216 214 214 222 231 231 230 233 237 237 233 227 225 230 229 216
329 322 313 300 287 276 269 263 258 254 251 249 248 247 246 245 244 243 242 242 242 241 240 239 237 235 234 233 229 223 220 218 217 217 217 217 216 216 215 213 212 213 213 215 215 215 215 216 216 217 216 215 216 216 216 215 214 214 214 214 213 212 211 211 209 206 207 213 216 215 216 218 218 217 213 215 223 228 227 230 237 237 232 225 222 229 224 206
329 323 315 304 291 279 270 263 258 254 250 248 247 246 245 245 243 242 242 240 240 240 240 239 238 236 234 234 232 226 221 218 217 216 216 216 216 216 216 214 213 212 212 214 215 215 215 215 216 217 217 216 215 216 217 216 214 214 214 214 215 212 211 213 211 208 209 214 217 216 216 217 219 219 218 218 221 227 228 229 235 236 233 225 221 223 214 201
329 324 317 307 295 283 273 265 259 254 251 248 247 245 244 243 242 242 241 239 238 238 238 238 238 236 235 234 233 231 225 219 217 216 216 216 216 216 216 215 214 212 212 213 214 214 214 215 215 216 217 216 214 215 216 216 215 214 214 214 215 212 211 212 212 210 211 215 218 218 217 217 218 218 218 218 220 224 225 227 234 238 234 226 219 218 213 209
329 325 319 310 298 285 275 268 263 258 254 252 249 248 245 243 242 241 240 239 237 236 236 236 236 235 235 234 234 233 229 222 218 216 215 216 215 216 216 216 215 213 212 212 213 214 213 214 214 215 215 216 215 214 215 215 214 214 214 215 215 213 211 212 212 211 212 214 215 215 215 216 217 219 220 219 217 219 217 220 229 232 231 230 222 221 225 227
328 325 320 313 303 290 278 271 266 262 258 255 252 250 248 246 244 241 240 238 236 235 234 234 233 233 233 232 232 232 230 226 221 218 216 215 215 215 216 216 215 214 212 212 213 213 213 213 214 214 215 216 215 215 215 214 215 215 215 215 215 214 212 213 213 212 212 216 216 215 216 216 216 218 219 218 215 215 212 214 225 227 227 231 229 225 230 233
327 324 320 315 307 297 286 278 273 270 266 263 259 255 251 248 245 242 240 238 236 234 233 232 231 231 230 230 231 231 231 229 224 220 217 214 214 215 215 216 215 214 214 213 213 213 213 213 213 213 215 216 216 215 215 214 214 216 216 216 216 214 213 214 215 214 213 216 217 218 219 218 218 219 220 220 217 215 211 210 221 226 225 231 233 230 230 233
326 324 321 316 310 301 292 286 282 280 277 274 270 264 258 253 247 243 240 238 235 233 232 231 231 230 230 230 230 230 230 229 226 223 219 215 213 214 214 215 215 215 215 214 214 213 213 212 212 213 214 215 216 216 215 214 214 215 216 216 215 214 213 214 215 215 215 216 217 218 219 218 219 221 222 222 221 218 214 214 222 227 227 230 231 229 231 234
325 323 321 317 312 305 297 293 290 288 285 281 277 271 264 257 250 244 240 238 234 232 231 230 230 229 228 228 228 228 228 228 228 225 221 217 214 213 213 214 214 214 215 215 214 213 212 211 212 213 213 214 215 216 216 215 215 215 216 216 215 214 214 215 215 215 216 216 217 218 218 218 218 220 223 223 222 220 218 220 226 227 226 228 227 224 229 233
325 323 321 318 314 307 302 299 296 294 291 287 282 275 267 259 252 245 241 237 233 230 229 228 227 226 225 225 226 226 226 227 228 227 224 221 216 214 213 213 214 215 215 215 215 213 211 211 211 212 212 213 214 215 215 215 216 215 214 215 216 216 216 215 215 215 215 216 217 217 217 218 217 218 222 223 222 222 221 222 225 227 227 230 230 226 227 230
324 323 322 320 316 310 306 303 302 300 297 292 285 277 268 260 252 245 240 236 231 227 226 225 225 224 224 224 224 224 223 224 225 225 224 223 219 216 213 213 213 214 215 216 215 213 212 211 211 212 212 213 214 214 215 216 217 215 214 216 216 216 216 216 215 214 214 215 216 216 216 216 215 216 219 221 220 220 220 218 219 224 227 228 229 224 219 218
324 323 323 321 318 313 310 309 308 307 303 297 288 277 267 258 250 244 239 234 230 226 224 223 223 222 222 222 223 222 222 222 223 223 223 221 220 217 214 213 213 213 215 217 215 213 213 213 212 212 212 213 214 214 215 217 218 215 215 216 216 216 216 216 215 215 215 215 214 215 216 216 215 216 217 218 217 216 216 214 212 214 213 214 217 212 211 218
324 323 324 323 320 317 315 315 315 313 309 302 291 278 266 256 248 242 237 232 227 224 222 221 220 220 219 219 220 219 219 219 220 222 221 220 219 217 215 214 212 212 214 215 214 213 213 213 212 211 211 212 213 213 214 216 215 214 216 216 215 216 217 217 216 215 215 215 213 214 215 215 215 216 217 217 216 216 216 214 214 214 210 207 210 212 218 232
324 324 325 325 323 321 320 321 321 320 316 307 295 280 267 255 245 239 233 228 225 222 219 218 218 217 217 218 218 217 217 217 218 220 220 219 218 217 216 214 213 213 214 214 213 213 213 213 212 211 211 211 212 213 214 214 213 213 216 216 215 216 217 217 217 216 216 216 215 215 215 215 215 216 217 217 217 217 218 215 214 217 216 213 217 224 231 238
325 325 326 326 325 324 326 326 327 326 322 313 301 286 270 255 243 235 228 224 221 219 217 215 215 215 215 215 216 215 215 215 216 218 218 218 218 217 216 215 214 214 214 213 213 214 214 213 212 212 211 210 212 213 213 214 214 215 216 216 215 215 216 217 216 216 217 217 216 217 216 215 215 216 217 217 217 217 219 217 214 216 219 218 220 227 235 238
326 327 327 328 327 328 330 331 333 332 327 319 308 293 276 257 243 233 226 221 218 217 216 214 213 212 212 213 213 213 213 213 213 215 216 216 216 215 214 213 213 213 212 211 211 213 214 212 211 212 211 211 213 213 212 213 214 216 217 217 215 214 215 216 215 215 217 217 217 216 215 215 215 216 216 217 218 218 219 219 217 218 222 223 221 222 229 235
328 328 329 330 330 332 334 335 337 336 331 324 312 297 280 260 242 230 224 219 216 214 213 212 212 211 211 211 212 212 212 212 212 213 214 215 215 214 214 213 214 213 213 212 211 213 213 212 211 212 212 212 213 212 212 213 214 214 216 217 216 214 215 216 216 216 217 218 218 215 213 213 214 215 216 216 216 218 219 219 220 221 224 227 225 221 222 226
329 329 330 332 333 335 338 339 340 339 335 328 319 305 287 262 241 229 221 216 214 212 209 208 209 210 210 210 210 210 210 211 212 212 213 213 213 214 214 213 213 213 213 212 212 213 213 211 212 213 212 213 213 211 212 213 214 214 215 216 216 215 215 216 217 219 220 220 220 219 216 214 214 214 215 216 215 217 219 220 220 222 224 227 227 225 223 223
330 330 332 333 335 338 340 341 342 340 338 335 327 313 292 263 239 226 219 214 211 209 208 206 206 207 209 209 209 209 209 210 211 212 212 212 212 212 212 212 212 213 212 211 211 212 211 211 212 213 213 213 213 212 213 214 214 214 215 217 216 215 215 215 215 218 220 221 222 221 219 218 217 215 215 215 215 216 217 219 220 221 224 227 227 226 226 226
331 331 333 335 337 340 341 343 344 343 342 340 331 315 293 261 235 222 216 211 209 207 207 206 205 205 207 207 207 208 208 209 210 211 212 212 211 211 211 211 212 212 212 211 211 211 210 210 212 213 213 213 213 212 213 214 213 213 214 215 216 216 216 215 215 216 217 218 219 220 220 221 220 218 217 216 216 216 217 218 219 220 222 226 227 227 227 227
332 332 334 337 339 341 343 344 346 346 343 339 330 316 296 261 231 219 213 209 206 206 206 204 204 204 205 206 206 206 208 209 209 209 210 210 211 211 211 211 211 212 212 211 211 211 210 209 211 212 213 214 213 213 213 214 213 213 213 214 214 215 216 216 217 218 218 218 218 219 220 221 220 220 219 218 217 217 217 218 220 221 222 224 226 227 227 228
333 333 335 339 340 342 344 345 347 347 344 339 332 321 302 262 228 216 212 208 203 203 205 204 203 204 204 205 205 205 207 208 209 209 209 209 210 211 211 211 211 212 212 210 210 210 209 209 210 211 212 213 213 213 214 214 214 214 215 214 214 215 214 214 216 217 219 220 220 220 220 220 220 220 220 220 219 218 218 219 220 221 223 224 226 227 228 229
335 335 336 340 341 343 344 346 348 348 346 343 337 326 309 268 229 214 211 209 204 200 202 205 205 204 204 205 205 205 206 207 208 209 209 209 209 210 211 211 211 212 212 211 210 209 209 209 210 211 212 213 213 214 215 214 214 214 215 215 216 217 216 215 215 215 216 219 221 222 223 221 221 222 222 222 221 220 220 220 221 222 223 224 226 227 229 230
336 335 337 341 342 343 345 346 348 349 348 346 341 330 315 276 231 214 209 209 206 201 198 200 203 204 204 204 205 206 207 207 207 208 208 208 208 209 210 211 212 212 212 212 211 210 209 209 210 211 212 213 213 214 214 214 215 215 215 215 215 216 217 216 217 217 217 218 220 221 222 221 222 223 223 224 224 222 221 221 222 223 223 224 226 227 228 230
336 336 339 342 343 343 345 347 348 349 350 348 344 335 320 287 235 215 209 207 207 205 201 197 198 202 204 203 204 206 207 207 207 208 208 208 208 208 209 211 212 212 213 213 212 211 210 210 210 211 212 212 212 214 214 214 215 216 215 215 216 217 217 217 218 218 218 219 221 221 221 220 221 222 223 224 225 225 224 223 222 223 223 224 225 226 228 229
337 337 340 342 343 344 346 347 348 349 350 349 345 338 325 297 242 217 210 207 205 205 204 201 197 197 201 203 204 205 207 208 208 208 208 208 208 208 209 210 211 212 213 213 213 212 211 210 210 211 212 212 212 213 213 214 215 215 215 216 217 218 218 217 218 217 218 219 220 222 222 221 222 224 224 224 225 225 225 225 224 224 224 224 225 226 227 228
337 338 341 343 344 345 346 347 348 349 350 350 347 339 327 302 251 220 211 208 206 204 204 204 202 199 198 200 202 204 205 207 208 209 209 209 209 209 209 210 211 212 213 214 214 213 212 211 210 211 213 213 213 213 214 214 215 215 215 216 217 218 218 218 218 219 219 219 220 222 222 220 222 224 225 225 225 225 226 226 226 226 225 225 225 226 226 227
337 339 343 344 344 346 346 347 348 349 349 349 347 341 330 308 258 224 212 208 207 206 204 204 204 204 202 201 201 202 204 205 206 207 208 209 210 210 211 211 212 213 214 215 215 214 213 212 211 211 212 213 213 214 214 215 215 215 215 216 217 218 219 219 219 219 220 220 222 223 222 220 222 223 224 224 225 226 226 227 227 227 227 227 227 227 227 228
338 341 344 344 344 346 347 347 348 348 349 349 348 344 335 314 268 227 214 209 207 207 207 205 204 204 205 204 204 203 204 204 204 205 207 208 209 210 211 211 212 213 214 215 216 215 214 213 212 212 212 213 213 214 214 215 215 215 216 216 217 218 219 220 220 220 220 221 222 223 223 222 223 224 224 225 225 226 227 227 228 229 228 228 228 228 228 229
339 341 344 345 345 347 348 348 348 348 348 349 349 347 340 321 283 236 215 209 207 206 207 207 206 205 205 205 206 206 206 206 206 206 207 207 208 209 210 211 212 213 214 215 216 216 216 214 213 213 213 213 214 214 214 215 215 215 216 217 217 218 219 220 220 220 220 221 222 223 223 223 223 224 225 225 225 226 226 227 228 229 229 229 229 229 229 230
338 342 344 344 345 347 348 348 348 348 348 350 350 348 345 332 297 251 222 210 208 206 206 207 208 207 206 206 206 207 207 207 207 208 208 209 209 210 210 211 211 212 213 215 216 217 216 215 215 214 213 214 214 214 214 215 215 216 216 217 217 218 218 219 220 220 220 222 222 223 223 223 223 223 225 226 225 226 227 227 228 229 230 230 230 230 230 231
338 342 343 343 345 347 348 349 349 349 349 350 350 349 346 341 316 262 232 217 210 208 207 206 208 209 209 208 207 207 208 208 208 208 209 210 210 211 212 212 212 212 213 214 215 216 217 216 216 215 214 214 215 215 215 216 216 216 216 217 218 218 219 219 220 220 221 222 223 223 224 224 223 223 225 226 226 226 227 228 228 229 229 230 230 230 231 231
337 342 342 343 345 347 349 350 350 350 350 350 349 348 347 345 338 270 232 223 215 211 210 208 208 209 210 211 211 210 209 209 209 209 210 211 211 212 213 213 214 214 214 215 215 216 216 217 217 217 216 215 215 216 216 217 217 217 217 218 218 219 219 220 220 221 221 222 223 223 223 223 223 223 225 226 226 226 227 228 228 229 229 230 230 231 231 232
Height
10887 10887 10887 10887 10888 10888 10889 10889 10890 10892 10894 10895 10897 10899 10901 10903 10905 10908 10910 10913 10915 10918 10921 10924 10927 10929 10932 10935 10937 10939 10941 10943 10945 10946 10948 10951 10954 10957 10960 10964 10967 10971 10975 10978 10982 10985 10988 10991 10995 10999 11002 11004 11007 11010 11013 11017 11019 11022 11023 11023 11027 11028 11027 11028 11029 11030 11030 11030 11030 11031 11031 11031 11032 11031 11030 11030 11031 11031 11031 11031 11030 11029 11027 11024 11021 11018 11015 11015
10883 10882 10882 10882 10882 10883 10884 10884 10885 10886 10888 10889 10891 10892 10894 10896 10899 10901 10904 10906 10909 10912 10915 10918 10921 10924 10927 10930 10933 10935 10937 10939 10941 10943 10945 10948 10951 10953 10956 10959 10964 10968 10971 10975 10978 10981 10985 10988 10992 10996 10999 11001 11005 11008 11011 11015 11017 11020 11021 11022 11024 11025 11025 11026 11027 11029 11029 11029 11030 11030 11030 11030 11031 11031 11031 11031 11031 11031 11031 11031 11031 11030 11029 11026 11023 11020 11018 11017
10878 10877 10877 10877 10877 10878 10878 10879 10879 10880 10882 10884 10885 10886 10888 10890 10892 10895 10898 10900 10903 10905 10908 10911 10915 10918 10921 10924 10928 10930 10932 10934 10936 10939 10942 10944 10947 10949 10952 10956 10960 10964 10968 10971 10974 10978 10982 10985 10989 10993 10996 10999 11002 11006 11009 11012 11014 11016 11019 11021 11023 11024 11025 11025 11026 11028 11028 11029 11030 11030 11030 11030 11031 11031 11031 11031 11032 11031 11032 11032 11031 11031 11030 11028 11025 11022 11020 11019
10874 10873 10872 10872 10872 10872 10873 10873 10874 10874 10875 10878 10879 10881 10882 10883 10885 10888 10891 10894 10896 10899 10902 10905 10908 10912 10915 10919 10922 10925 10928 10930 10932 10934 10938 10941 10943 10945 10948 10951 10956 10960 10964 10968 10971 10975 10979 10983 10987 10990 10994 10997 11000 11004 11007 11009 11011 11013 11015 11018 11020 11021 11023 11024 11026 11026 11027 11029 11030 11030 11030 11031 11031 11031 11031 11032 11031 11031 11032 11032 11032 11032 11031 11029 11027 11024 11022 11022
10868 10868 10867 10867 10867 10867 10867 10867 10868 10869 10869 10871 10873 10875 10876 10877 10879 10881 10884 10886 10889 10892 10895 10898 10902 10905 10909 10912 10916 10920 10923 10926 10928 10930 10933 10937 10939 10941 10944 10948 10951 10955 10960 10964 10968 10971 10975 10979 10983 10987 10990 10993 10997 11001 11004 11006 11008 11010 11013 11016 11018 11019 11021 11023 11025 11025 11026 11028 11030 11030 11030 11031 11031 11032 11032 11031 11031 11031 11032 11032 11032 11032 11031 11030 11028 11026 11024 11023
10861 10861 10861 10861 10861 10862 10862 10862 10862 10863 10864 10865 10866 10869 10870 10872 10873 10875 10877 10879 10882 10885 10889 10892 10895 10899 10902 10906 10910 10914 10918 10921 10923 10925 10929 10932 10934 10937 10940 10943 10947 10951 10956 10960 10964 10968 10972 10975 10979 10983 10986 10990 10994 10997 11000 11003 11006 11008 11010 11014 11016 11018 11020 11022 11023 11024 11026 11027 11029 11030 11030 11030 11032 11033 11032 11031 11031 11031 11031 11032 11032 11032 11032 11031 11029 11027 11026 11025
10854 10854 10854 10854 10855 10855 10856 10856 10857 10857 10858 10859 10860 10862 10864 10865 10867 10869 10871 10873 10875 10878 10881 10885 10888 10892 10895 10900 10903 10907 10912 10915 10918 10921 10923 10927 10930 10933 10936 10939 10943 10946 10951 10956 10961 10965 10968 10972 10975 10979 10983 10986 10990 10994 10997 11000 11003 11005 11008 11012 11014 11016 11018 11021 11023 11025 11026 11027 11028 11030 11030 11031 11033 11034 11032 11031 11031 11031 11031 11032 11033 11033 11032 11032 11031 11029 11027 11026
10846 10846 10846 10846 10847 10847 10848 10849 10850 10851 10852 10853 10854 10855 10857 10858 10860 10862 10864 10867 10869 10871 10874 10877 10881 10885 10889 10893 10897 10901 10906 10909 10913 10915 10918 10922 10925 10928 10931 10934 10938 10942 10947 10952 10956 10960 10964 10967 10971 10975 10979 10982 10986 10990 10993 10997 11000 11003 11006 11010 11013 11015 11017 11019 11022 11025 11025 11026 11028 11029 11030 11031 11032 11032 11032 11031 11031 11031 11032 11033 11033 11033 11033 11032 11031 11030 11029 11027
10839 10838 10838 10838 10838 10839 10840 10841 10842 10843 10845 10847 10848 10849 10850 10851 10853 10855 10858 10860 10862 10865 10867 10870 10874 10877 10882 10886 10890 10895 10899 10903 10907 10910 10913 10917 10920 10924 10926 10930 10934 10938 10942 10946 10951 10956 10960 10963 10967 10971 10973 10977 10982 10986 10990 10993 10997 11000 11003 11007 11010 11013 11016 11018 11021 11023 11025 11026 11027 11029 11030 11030 11030 11030 11031 11032 11030 11030 11032 11032 11033 11033 11033 11033 11032 11031 11030 11029
10831 10831 10830 10830 10830 10830 10831 10832 10833 10835 10837 10839 10841 10842 10843 10845 10846 10848 10850 10853 10855 10858 10860 10864 10867 10870 10875 10879 10884 10889 10892 10897 10901 10904 10907 10911 10915 10918 10922 10926 10929 10933 10937 10941 10946 10951 10955 10960 10963 10965 10968 10973 10978 10982 10986 10990 10994 10997 11001 11004 11008 11011 11014 11016 11020 11022 11024 11026 11026 11027 11027 11027 11027 11028 11030 11031 11030 11030 11032 11032 11033 11033 11034 11033 11033 11032 11031 11030
10824 10823 10823 10822 10822 10822 10823 10823 10825 10826 10828 10831 10833 10834 10836 10838 10839 10841 10843 10845 10848 10851 10854 10857 10859 10863 10867 10871 10877 10882 10885 10890 10893 10897 10901 10905 10909 10913 10918 10921 10925 10929 10933 10937 10942 10946 10951 10954 10956 10960 10964 10970 10974 10978 10983 10987 10992 10996 10999 11003 11006 11009 11012 11015 11018 11020 11023 11025 11024 11023 11024 11024 11026 11027 11029 11030 11029 11029 11031 11032 11032 11033 11034 11034 11033 11033 11032 11032
10817 10816 10815 10814 10814 10814 10814 10815 10816 10817 10820 10822 10823 10825 10827 10830 10832 10834 10836 10838 10841 10843 10846 10849 10853 10856 10859 10865 10870 10873 10878 10883 10886 10891 10895 10899 10903 10907 10912 10916 10920 10924 10928 10932 10936 10941 10945 10947 10950 10955 10959 10965 10970 10974 10979 10984 10989 10992 10996 11000 11003 11007 11010 11013 11016 11018 11020 11021 11021 11021 11022 11023 11025 11027 11028 11029 11029 11029 11031 11032 11032 11033 11034 11034 11034 11034 11033 11033
10810 10808 10807 10806 10806 10806 10806 10807 10808 10809 10811 10813 10815 10816 10818 10821 10823 10826 10828 10831 10833 10836 10838 10841 10845 10848 10853 10858 10861 10865 10871 10876 10879 10884 10889 10893 10897 10901 10906 10911 10915 10918 10923 10926 10930 10935 10938 10941 10945 10948 10954 10961 10965 10969 10975 10980 10984 10988 10992 10996 11000 11004 11007 11010 11013 11015 11016 11017 11018 11020 11021 11023 11024 11026 11027 11028 11029 11029 11030 11032 11032 11033 11034 11035 11035 11034 11034 11033
10803 10801 10800 10799 10798 10798 10798 10799 10799 10801 10803 10804 10806 10807 10810 10812 10814 10817 10820 10823 10826 10828 10831 10833 10837 10841 10846 10850 10853 10858 10864 10867 10872 10878 10882 10887 10891 10895 10900 10905 10909 10913 10917 10920 10925 10929 10932 10936 10939 10943 10951 10956 10959 10966 10972 10976 10980 10984 10988 10992 10997 11000 11004 11007 11010 11012 11012 11014 11017 11018 11020 11023 11023 11025 11027 11028 11028 11028 11029 11031 11032 11033 11034 11035 11035 11035 11034 11034
10797 10794 10792 10791 10790 10790 10790 10790 10791 10792 10794 10796 10797 10799 10801 10803 10805 10808 10811 10814 10817 10820 10823 10826 10829 10833 10838 10842 10846 10851 10855 10860 10865 10870 10875 10880 10884 10889 10894 10899 10903 10907 10911 10915 10919 10923 10927 10932 10934 10939 10946 10949 10955 10964 10968 10971 10976 10980 10985 10989 10993 10996 11001 11004 11007 11009 11009 11013 11016 11017 11019 11021 11022 11024 11026 11028 11028 11028 11029 11031 11032 11033 11034 11035 11035 11035 11035 11034
10791 10787 10785 10783 10782 10781 10781 10781 10782 10783 10785 10787 10788 10790 10792 10794 10797 10799 10802 10805 10808 10811 10815 10818 10821 10825 10831 10835 10839 10842 10847 10852 10857 10862 10867 10872 10877 10882 10887 10892 10896 10900 10904 10908 10912 10917 10922 10926 10930 10936 10940 10944 10953 10960 10963 10967 10972 10976 10980 10985 10988 10992 10997 11001 11005 11007 11008 11012 11014 11015 11016 11018 11021 11023 11025 11027 11028 11028 11029 11030 11032 11033 11033 11035 11035 11035 11035 11035
10785 10781 10778 10776 10774 10773 10773 10772 10772 10773 10776 10777 10779 10781 10782 10785 10787 10790 10793 10796 10799 10802 10805 10809 10813 10818 10822 10826 10829 10834 10840 10844 10849 10854 10860 10865 10870 10875 10880 10885 10889 10894 10898 10902 10907 10912 10916 10920 10925 10930 10932 10938 10948 10954 10958 10963 10967 10971 10976 10980 10984 10989 10994 10997 11001 11003 11006 11010 11011 11011 11013 11016 11019 11022 11025 11027 11026 11027 11028 11029 11031 11032 11033 11034 11035 11035 11035 11035
10779 10774 10771 10769 10767 10765 10764 10764 10763 10764 10766 10768 10769 10771 10773 10775 10778 10781 10784 10786 10789 10792 10796 10801 10804 10808 10814 10818 10823 10828 10832 10836 10841 10846 10852 10857 10862 10868 10873 10878 10883 10887 10892 10896 10901 10906 10911 10915 10920 10923 10927 10935 10943 10947 10952 10957 10962 10967 10971 10975 10980 10985 10990 10993 10997 11000 11003 11006 11006 11007 11009 11013 11017 11021 11024 11025 11025 11025 11026 11027 11029 11031 11032 11034 11034 11035 11035 11035
10773 10769 10765 10762 10759 10758 10756 10756 10755 10756 10757 10759 10759 10761 10763 10765 10768 10772 10774 10777 10779 10783 10788 10792 10794 10799 10807 10811 10815 10819 10822 10827 10833 10838 10844 10849 10855 10860 10865 10871 10875 10880 10885 10890 10895 10901 10905 10910 10914 10919 10925 10931 10935 10939 10946 10953 10958 10962 10967 10971 10976 10981 10985 10989 10993 10996 10998 10998 11000 11003 11006 11010 11014 11019 11023 11024 11023 11023 11024 11025 11028 11030 11032 11033 11034 11034 11034 11034
10768 10763 10759 10755 10752 10750 10749 10748 10748 10748 10749 10749 10749 10751 10753 10755 10758 10762 10764 10767 10770 10774 10778 10780 10784 10790 10797 10801 10805 10809 10812 10819 10825 10830 10835 10841 10846 10852 10858 10863 10869 10874 10879 10884 10889 10894 10899 10905 10910 10914 10918 10922 10927 10933 10941 10948 10954 10959 10963 10967 10971 10976 10981 10985 10989 10991 10992 10992 10995 10999 11002 11007 11011 11017 11022 11023 11022 11022 11023 11024 11026 11029 11031 11032 11033 11033 11033 11033
10761 10757 10753 10749 10746 10744 10742 10741 10740 10740 10740 10740 10740 10741 10743 10745 10748 10750 10753 10756 10760 10764 10767 10770 10776 10782 10788 10792 10795 10799 10805 10811 10817 10822 10827 10833 10838 10844 10849 10856 10862 10868 10873 10878 10883 10888 10894 10900 10904 10907 10911 10916 10923 10930 10936 10943 10949 10953 10957 10962 10966 10971 10976 10980 10984 10987 10988 10988 10991 10996 10999 11003 11008 11013 11018 11020 11020 11021 11022 11024 11026 11027 11029 11031 11032 11032 11032 11033
10755 10751 10746 10742 10739 10736 10735 10734 10733 10732 10732 10732 10731 10733 10734 10736 10738 10739 10742 10746 10749 10753 10756 10761 10766 10772 10778 10779 10783 10790 10797 10802 10808 10814 10819 10824 10829 10835 10841 10848 10855 10860 10866 10871 10876 10882 10889 10893 10896 10900 10906 10913 10922 10928 10932 10937 10942 10946 10952 10956 10959 10965 10972 10974 10978 10982 10984 10984 10987 10991 10995 11000 11004 11008 11013 11016 11018 11020 11021 11024 11025 11026 11028 11030 11031 11031 11031 11031
10748 10744 10740 10736 10732 10729 10727 10726 10725 10725 10724 10724 10723 10724 10725 10726 10728 10729 10731 10734 10738 10742 10746 10751 10756 10763 10766 10769 10776 10782 10786 10793 10800 10804 10809 10814 10820 10827 10834 10841 10846 10853 10860 10865 10869 10875 10880 10884 10888 10895 10903 10910 10916 10920 10922 10928 10934 10940 10946 10948 10951 10959 10964 10966 10972 10978 10980 10982 10984 10987 10992 10996 10999 11004 11008 11012 11015 11018 11021 11024 11025 11026 11028 11029 11030 11031 11030 11031
10740 10736 10732 10728 10725 10722 10720 10718 10717 10717 10716 10715 10715 10716 10716 10717 10718 10719 10721 10724 10727 10730 10734 10740 10746 10750 10755 10762 10767 10768 10774 10784 10791 10796 10801 10805 10813 10821 10826 10831 10838 10846 10852 10856 10861 10866 10872 10876 10883 10891 10897 10902 10906 10910 10914 10921 10928 10933 10938 10940 10945 10952 10956 10962 10969 10973 10975 10978 10980 10984 10988 10992 10996 11000 11004 11008 11012 11015 11019 11025 11026 11026 11028 11027 11028 11030 11030 11030
10732 10727 10723 10720 10716 10714 10712 10710 10709 10708 10707 10707 10706 10706 10706 10707 10708 10709 10710 10712 10715 10719 10724 10730 10734 10739 10746 10751 10752 10756 10766 10775 10781 10787 10791 10797 10807 10812 10815 10822 10830 10838 10844 10848 10852 10858 10864 10870 10878 10886 10890 10893 10899 10905 10910 10916 10922 10926 10931 10934 10938 10946 10955 10961 10963 10966 10971 10973 10976 10981 10984 10989 10993 10997 11001 11005 11008 11011 11016 11022 11023 11024 11026 11025 11025 11028 11029 11028
10723 10719 10715 10711 10708 10705 10703 10702 10700 10698 10698 10696 10696 10695 10695 10696 10696 10696 10699 10700 10703 10708 10713 10718 10722 10728 10733 10736 10742 10751 10758 10763 10771 10776 10781 10789 10797 10801 10808 10816 10823 10830 10836 10839 10844 10851 10858 10866 10875 10880 10883 10888 10895 10900 10905 10911 10917 10922 10925 10928 10935 10946 10953 10953 10955 10961 10965 10967 10972 10977 10981 10987 10991 10994 10997 11001 11004 11008 11011 11016 11016 11018 11021 11022 11023 11025 11026 11026
10715 10711 10707 10702 10699 10697 10694 10692 10690 10688 10687 10684 10683 10683 10682 10682 10681 10683 10686 10685 10688 10696 10702 10707 10712 10717 10723 10730 10738 10742 10743 10751 10760 10765 10771 10781 10788 10794 10801 10807 10813 10821 10827 10833 10839 10845 10852 10863 10869 10871 10877 10883 10888 10893 10898 10905 10911 10913 10916 10922 10932 10941 10943 10944 10950 10956 10959 10963 10969 10973 10978 10984 10988 10991 10994 10997 11000 11003 11007 11010 11011 11012 11015 11017 11019 11022 11023 11023
10707 10703 10698 10694 10691 10688 10685 10683 10680 10678 10675 10672 10670 10668 10667 10667 10666 10669 10671 10669 10676 10686 10692 10696 10700 10706 10715 10722 10724 10724 10734 10746 10751 10756 10764 10772 10778 10784 10788 10795 10803 10812 10819 10825 10830 10836 10847 10856 10859 10863 10871 10875 10880 10887 10893 10899 10902 10904 10911 10921 10929 10933 10935 10940 10946 10950 10955 10961 10966 10970 10976 10981 10985 10987 10989 10992 10996 10999 11003 11005 11005 11008 11011 11013 11015 11018 11020 11020
10699 10695 10691 10687 10683 10680 10677 10674 10670 10667 10663 10659 10656 10653 10651 10651 10651 10654 10654 10656 10666 10674 10677 10680 10685 10693 10701 10706 10709 10717 10731 10738 10741 10749 10757 10762 10769 10775 10781 10791 10799 10805 10812 10814 10818 10827 10837 10844 10849 10856 10862 10866 10873 10878 10885 10891 10894 10899 10911 10917 10921 10925 10930 10934 10939 10945 10951 10955 10960 10967 10972 10975 10980 10982 10983 10988 10992 10995 10999 11001 11002 11005 11007 11010 11012 11015 11018 11017
10692 10687 10683 10679 10675 10672 10668 10665 10661 10656 10651 10646 10642 10638 10637 10636 10637 10638 10639 10643 10653 10658 10661 10666 10672 10681 10689 10694 10701 10711 10720 10725 10732 10741 10745 10751 10760 10767 10776 10784 10790 10798 10802 10802 10809 10820 10830 10837 10843 10848 10854 10861 10867 10872 10882 10886 10888 10899 10909 10910 10913 10918 10921 10926 10932 10939 10945 10949 10956 10962 10964 10967 10972 10975 10978 10982 10987 10991 10995 10998 11002 11003 11004 11006 11008 11010 11014 11014
10684 10679 10675 10671 10667 10664 10660 10656 10651 10645 10640 10634 10629 10626 10624 10623 10623 10624 10626 10632 10639 10643 10647 10653 10662 10671 10678 10685 10693 10702 10710 10717 10724 10728 10731 10740 10748 10756 10768 10774 10780 10789 10790 10792 10804 10818 10827 10832 10835 10842 10851 10858 10864 10872 10879 10877 10883 10898 10901 10900 10906 10910 10913 10920 10927 10935 10940 10945 10950 10954 10955 10959 10964 10969 10974 10977 10982 10986 10989 10993 10998 11000 11001 11004 11004 11005 11008 11010
10676 10672 10668 10663 10660 10656 10652 10647 10641 10635 10629 10623 10618 10615 10613 10612 10613 10613 10617 10622 10626 10630 10636 10644 10652 10659 10665 10672 10681 10690 10698 10705 10711 10715 10722 10730 10736 10745 10755 10760 10768 10775 10775 10782 10798 10810 10815 10817 10825 10838 10846 10851 10858 10864 10864 10866 10879 10890 10888 10890 10898 10903 10909 10917 10924 10931 10935 10937 10941 10942 10945 10951 10958 10964 10968 10972 10978 10981 10985 10989 10992 10995 10999 11002 11002 11002 11004 11006
10669 10664 10660 10656 10652 10649 10644 10639 10632 10625 10619 10613 10609 10606 10605 10604 10603 10604 10608 10612 10615 10619 10626 10632 10639 10646 10655 10664 10671 10680 10688 10694 10700 10705 10713 10720 10728 10738 10745 10751 10761 10765 10767 10778 10791 10798 10800 10808 10822 10831 10835 10842 10847 10848 10851 10860 10873 10877 10877 10885 10893 10899 10906 10912 10918 10924 10926 10929 10933 10934 10939 10948 10954 10958 10963 10967 10972 10976 10979 10983 10987 10991 10995 10998 10999 11000 11001 11003
10662 10658 10653 10649 10645 10641 10637 10631 10624 10616 10610 10605 10601 10599 10598 10596 10596 10597 10600 10603 10607 10611 10615 10621 10628 10637 10646 10653 10660 10668 10675 10683 10690 10697 10705 10713 10721 10728 10734 10742 10750 10754 10761 10773 10783 10787 10791 10803 10813 10818 10825 10833 10835 10838 10848 10859 10867 10869 10872 10879 10887 10894 10900 10904 10911 10917 10918 10920 10924 10929 10938 10945 10948 10953 10957 10960 10965 10970 10974 10977 10982 10986 10989 10994 10998 11000 10999 10998
10656 10651 10647 10643 10639 10635 10630 10624 10617 10609 10603 10599 10595 10593 10591 10590 10590 10592 10594 10597 10601 10604 10608 10615 10621 10628 10634 10640 10647 10655 10663 10671 10679 10686 10693 10699 10704 10711 10721 10730 10737 10744 10752 10762 10771 10776 10781 10792 10802 10810 10820 10826 10827 10836 10848 10854 10858 10861 10865 10873 10880 10886 10890 10896 10903 10906 10907 10911 10917 10926 10934 10938 10941 10944 10947 10952 10960 10965 10968 10973 10977 10980 10983 10987 10994 10999 10997 10994
10650 10646 10641 10637 10633 10629 10624 10617 10611 10604 10597 10593 10590 10588 10586 10585 10585 10587 10589 10592 10595 10598 10603 10609 10614 10619 10625 10631 10638 10647 10656 10663 10670 10675 10682 10689 10697 10707 10718 10725 10731 10739 10746 10753 10761 10763 10769 10785 10797 10804 10812 10815 10820 10831 10840 10842 10844 10850 10857 10864 10870 10877 10884 10890 10896 10898 10899 10904 10910 10918 10924 10929 10933 10935 10939 10946 10954 10958 10963 10968 10972 10975 10978 10981 10987 10993 10993 10991
10645 10641 10636 10632 10628 10624 10618 10612 10605 10599 10593 10589 10585 10583 10582 10581 10581 10582 10584 10587 10590 10593 10598 10602 10606 10611 10617 10623 10631 10639 10647 10655 10660 10667 10674 10682 10691 10701 10709 10714 10722 10729 10735 10744 10751 10754 10766 10783 10791 10794 10801 10807 10814 10824 10829 10830 10834 10842 10848 10852 10861 10874 10882 10887 10892 10894 10896 10901 10906 10913 10919 10921 10922 10926 10931 10939 10945 10951 10957 10961 10966 10970 10972 10975 10979 10984 10986 10987
10641 10636 10632 10628 10624 10619 10614 10609 10602 10595 10590 10585 10582 10580 10579 10578 10578 10579 10581 10583 10586 10589 10592 10594 10599 10604 10610 10617 10624 10631 10639 10646 10653 10660 10666 10673 10682 10690 10696 10705 10713 10718 10724 10733 10740 10749 10764 10777 10780 10785 10794 10799 10806 10816 10819 10820 10828 10837 10843 10849 10861 10870 10872 10877 10882 10885 10891 10897 10902 10908 10912 10912 10913 10918 10924 10932 10939 10944 10949 10954 10958 10963 10965 10968 10972 10976 10979 10982
10636 10632 10628 10624 10620 10616 10611 10605 10599 10591 10585 10582 10580 10578 10577 10576 10576 10576 10578 10580 10582 10585 10588 10591 10596 10600 10604 10610 10617 10624 10631 10637 10643 10650 10658 10667 10675 10681 10688 10696 10702 10708 10716 10726 10735 10744 10755 10764 10769 10776 10784 10790 10797 10805 10806 10809 10819 10829 10835 10844 10854 10859 10862 10867 10872 10876 10882 10887 10892 10897 10900 10901 10907 10914 10921 10928 10933 10936 10941 10946 10950 10954 10957 10961 10965 10968 10972 10976
10633 10629 10625 10621 10617 10613 10608 10603 10596 10589 10584 10581 10578 10576 10574 10574 10574 10574 10576 10577 10580 10582 10585 10589 10592 10595 10600 10605 10612 10618 10623 10629 10635 10641 10649 10658 10666 10674 10681 10688 10694 10701 10709 10718 10728 10735 10744 10753 10760 10769 10777 10780 10784 10789 10792 10800 10812 10820 10826 10833 10841 10847 10853 10860 10867 10872 10875 10878 10883 10886 10887 10893 10902 10909 10915 10921 10924 10927 10933 10937 10941 10946 10950 10953 10957 10961 10965 10969
10630 10625 10622 10618 10614 10609 10605 10601 10595 10589 10584 10580 10577 10574 10572 10572 10571 10572 10574 10575 10577 10580 10583 10585 10588 10591 10596 10601 10606 10612 10617 10623 10629 10636 10644 10652 10660 10667 10675 10681 10688 10694 10700 10709 10717 10724 10734 10745 10751 10758 10762 10763 10772 10784 10792 10802 10812 10817 10821 10827 10831 10834 10841 10852 10859 10864 10868 10872 10873 10873 10877 10888 10897 10902 10908 10912 10914 10920 10925 10929 10934 10939 10943 10947 10951 10954 10958 10962
10626 10622 10619 10615 10611 10606 10602 10598 10593 10587 10582 10578 10575 10572 10571 10570 10570 10570 10572 10573 10575 10577 10580 10583 10586 10590 10594 10598 10604 10608 10613 10619 10626 10633 10640 10646 10654 10661 10668 10675 10682 10687 10694 10702 10709 10718 10728 10735 10740 10744 10747 10757 10773 10783 10788 10796 10803 10807 10812 10819 10824 10830 10838 10845 10846 10850 10857 10860 10864 10868 10876 10887 10893 10895 10899 10901 10905 10913 10918 10923 10928 10932 10936 10941 10944 10948 10952 10956
10624 10620 10617 10613 10608 10604 10599 10595 10590 10585 10580 10576 10573 10571 10569 10568 10568 10568 10570 10572 10573 10575 10577 10581 10585 10588 10592 10596 10601 10606 10610 10616 10621 10627 10634 10641 10648 10655 10662 10669 10675 10682 10689 10696 10704 10712 10719 10724 10731 10739 10748 10761 10770 10772 10777 10787 10792 10795 10801 10809 10816 10823 10830 10835 10838 10846 10852 10854 10858 10863 10869 10880 10885 10886 10889 10893 10898 10905 10910 10916 10921 10925 10929 10933 10937 10942 10945 10949
10622 10619 10615 10610 10606 10602 10597 10592 10588 10583 10578 10574 10571 10569 10568 10567 10567 10567 10568 10570 10572 10573 10575 10578 10581 10585 10590 10594 10598 10603 10607 10612 10617 10623 10629 10636 10642 10650 10657 10663 10670 10677 10684 10691 10698 10704 10709 10717 10728 10736 10742 10750 10755 10759 10769 10777 10780 10785 10795 10805 10811 10815 10821 10829 10834 10842 10846 10848 10852 10853 10858 10869 10873 10873 10880 10886 10891 10898 10904 10910 10914 10917 10922 10926 10930 10935 10938 10942
10620 10616 10613 10609 10605 10600 10595 10590 10586 10581 10577 10573 10570 10568 10566 10566 10565 10566 10567 10568 10570 10572 10574 10576 10578 10582 10586 10591 10595 10599 10604 10609 10615 10620 10626 10632 10638 10645 10651 10657 10664 10671 10677 10683 10689 10694 10702 10713 10723 10728 10730 10736 10742 10748 10757 10763 10768 10778 10791 10799 10802 10807 10815 10820 10825 10831 10833 10836 10841 10843 10853 10865 10867 10867 10875 10879 10884 10891 10896 10901 10905 10908 10914 10918 10923 10927 10931 10935
10618 10615 10611 10607 10603 10598 10593 10588 10584 10579 10575 10572 10569 10567 10565 10564 10564 10564 10565 10566 10568 10570 10572 10575 10577 10579 10583 10587 10592 10597 10601 10606 10612 10618 10624 10630 10635 10641 10647 10652 10659 10665 10670 10676 10681 10688 10697 10706 10712 10717 10721 10729 10736 10743 10750 10757 10763 10773 10784 10790 10793 10800 10806 10810 10816 10821 10823 10829 10834 10836 10848 10860 10860 10861 10868 10873 10878 10883 10887 10891 10895 10900 10906 10911 10915 10920 10924 10927
10616 10613 10609 10605 10601 10596 10591 10586 10581 10577 10574 10571 10568 10566 10564 10563 10562 10563 10563 10565 10566 10568 10570 10573 10576 10579 10581 10584 10588 10592 10596 10601 10607 10613 10619 10625 10631 10636 10642 10648 10653 10659 10665 10670 10676 10682 10689 10696 10702 10708 10715 10723 10731 10739 10746 10752 10758 10769 10777 10780 10785 10791 10795 10799 10806 10811 10817 10824 10827 10830 10841 10850 10849 10851 10859 10864 10869 10874 10878 10882 10886 10891 10897 10902 10907 10912 10916 10920
10614 10612 10608 10604 10600 10595 10590 10585 10580 10575 10572 10570 10567 10565 10563 10562 10561 10561 10562 10563 10565 10567 10569 10571 10574 10577 10580 10583 10586 10589 10593 10598 10603 10608 10613 10619 10625 10630 10636 10642 10648 10654 10660 10665 10671 10676 10681 10688 10696 10702 10709 10715 10722 10730 10736 10743 10752 10760 10764 10768 10775 10780 10783 10789 10797 10805 10813 10817 10818 10823 10833 10839 10841 10845 10851 10856 10860 10865 10869 10874 10878 10883 10889 10894 10899 10904 10908 10913
10613 10610 10607 10603 10599 10594 10589 10584 10579 10574 10571 10568 10566 10564 10562 10561 10560 10560 10560 10561 10563 10565 10567 10570 10572 10574 10577 10581 10584 10588 10592 10596 10601 10605 10609 10613 10618 10622 10629 10635 10641 10647 10653 10658 10664 10669 10674 10682 10689 10695 10701 10707 10713 10719 10726 10733 10741 10746 10751 10758 10765 10769 10774 10781 10789 10797 10804 10805 10807 10815 10822 10828 10836 10840 10842 10846 10851 10855 10860 10865 10870 10876 10880 10885 10891 10896 10900 10904
10611 10608 10605 10602 10598 10593 10589 10583 10578 10573 10570 10567 10564 10562 10561 10560 10559 10559 10559 10560 10561 10563 10565 10567 10570 10572 10575 10578 10581 10585 10589 10593 10597 10601 10605 10609 10613 10618 10623 10628 10633 10639 10645 10651 10656 10661 10667 10675 10680 10686 10692 10698 10704 10710 10716 10723 10729 10735 10742 10748 10753 10759 10766 10772 10777 10785 10791 10792 10797 10807 10812 10819 10828 10830 10831 10835 10842 10848 10853 10858 10863 10867 10872 10877 10882 10887 10892 10895
10610 10607 10604 10601 10597 10593 10588 10583 10578 10573 10569 10565 10563 10561 10560 10559 10558 10558 10558 10558 10559 10561 10563 10565 10567 10570 10573 10575 10578 10581 10585 10588 10593 10597 10601 10605 10610 10614 10618 10623 10628 10633 10637 10643 10648 10653 10661 10668 10672 10677 10684 10690 10696 10702 10709 10715 10719 10725 10732 10737 10742 10750 10755 10760 10767 10775 10781 10784 10791 10799 10802 10807 10818 10822 10821 10826 10835 10841 10845 10850 10855 10859 10863 10868 10873 10878 10883 10886
10608 10605 10603 10599 10596 10592 10587 10583 10577 10573 10569 10565 10562 10560 10559 10558 10557 10557 10557 10557 10558 10559 10561 10563 10565 10568 10571 10573 10576 10579 10582 10585 10588 10592 10596 10600 10605 10609 10613 10618 10623 10627 10632 10636 10640 10646 10654 10659 10664 10669 10675 10682 10690 10695 10701 10707 10710 10715 10721 10727 10733 10740 10746 10754 10762 10768 10773 10776 10782 10786 10788 10797 10809 10811 10811 10817 10827 10833 10836 10840 10845 10850 10855 10859 10864 10869 10874 10878